| time (UTC) | temp F | wind direction | speed MPH | gust MPH | rain 1hr in | rain 24hr in | rain mn in | humidity % | barometer mb |
| 20260509213036 | 64 | 274 | 16.0 | 24.0 | 0.00 | 0.00 | 0.00 | 33 | 1008.3 |
| 20260509211539 | 65 | 284 | 14.0 | 23.0 | 0.00 | 0.00 | 0.00 | 34 | 1008.3 |
| 20260509210038 | 64 | 279 | 16.0 | 22.0 | 0.00 | 0.00 | 0.00 | 34 | 1008.1 |
| 20260509204531 | 64 | 275 | 13.0 | 23.0 | 0.00 | 0.00 | 0.00 | 36 | 1008.0 |
| 20260509203031 | 64 | 261 | 15.0 | 20.0 | 0.00 | 0.00 | 0.00 | 35 | 1007.9 |
| 20260509201529 | 64 | 269 | 15.0 | 24.0 | 0.00 | 0.00 | 0.00 | 35 | 1007.8 |
| 20260509200026 | 64 | 292 | 14.0 | 25.0 | 0.00 | 0.00 | 0.00 | 38 | 1007.7 |
| 20260509194528 | 64 | 317 | 15.0 | 25.0 | 0.00 | 0.00 | 0.00 | 38 | 1007.5 |
| 20260509193023 | 64 | 281 | 14.0 | 24.0 | 0.00 | 0.00 | 0.00 | 37 | 1007.5 |
| 20260509191523 | 64 | 247 | 13.0 | 22.0 | 0.00 | 0.00 | 0.00 | 39 | 1007.5 |
| 20260509190020 | 63 | 291 | 13.0 | 22.0 | 0.00 | 0.00 | 0.00 | 43 | 1007.2 |
| 20260509184531 | 63 | 262 | 18.0 | 24.0 | 0.00 | 0.00 | 0.00 | 42 | 1007.1 |
| 20260509183018 | 63 | 306 | 12.0 | 23.0 | 0.00 | 0.00 | 0.00 | 43 | 1007.0 |
| 20260509181517 | 63 | 250 | 11.0 | 18.0 | 0.00 | 0.00 | 0.00 | 46 | 1007.0 |
| 20260509180015 | 62 | 284 | 8.0 | 20.0 | 0.00 | 0.00 | 0.00 | 47 | 1006.7 |
| 20260509174513 | 62 | 272 | 15.0 | 23.0 | 0.00 | 0.00 | 0.00 | 48 | 1006.7 |
| 20260509173010 | 62 | 279 | 14.0 | 23.0 | 0.00 | 0.00 | 0.00 | 48 | 1006.6 |
| 20260509171511 | 61 | 284 | 9.0 | 23.0 | 0.00 | 0.00 | 0.00 | 53 | 1006.7 |
| 20260509170007 | 60 | 266 | 16.0 | 24.0 | 0.00 | 0.00 | 0.00 | 54 | 1006.6 |
| 20260509164503 | 60 | 266 | 18.0 | 22.0 | 0.00 | 0.00 | 0.00 | 57 | 1006.4 |
| 20260509163001 | 59 | 242 | 15.0 | 24.0 | 0.00 | 0.00 | 0.00 | 57 | 1006.3 |
| 20260509161602 | 59 | 273 | 13.0 | 19.0 | 0.00 | 0.00 | 0.00 | 62 | 1006.2 |
| 20260509160059 | 58 | 259 | 16.0 | 23.0 | 0.00 | 0.00 | 0.00 | 62 | 1006.0 |
| 20260509154558 | 58 | 285 | 16.0 | 20.0 | 0.00 | 0.00 | 0.00 | 63 | 1005.8 |
| 20260509153058 | 57 | 270 | 13.0 | 22.0 | 0.00 | 0.00 | 0.00 | 65 | 1005.8 |
| 20260509151655 | 57 | 271 | 13.0 | 23.0 | 0.00 | 0.00 | 0.00 | 65 | 1005.7 |
| 20260509150056 | 57 | 248 | 16.0 | 23.0 | 0.00 | 0.00 | 0.00 | 64 | 1005.5 |
| 20260509144555 | 56 | 242 | 16.0 | 25.0 | 0.00 | 0.00 | 0.00 | 66 | 1005.7 |
| 20260509143055 | 56 | 253 | 14.0 | 24.0 | 0.00 | 0.00 | 0.00 | 65 | 1005.5 |
| 20260509141600 | 56 | 251 | 14.0 | 21.0 | 0.00 | 0.00 | 0.00 | 63 | 1005.2 |
| 20260509140059 | 56 | 266 | 10.0 | 22.0 | 0.00 | 0.00 | 0.00 | 61 | 1005.0 |
| 20260509134548 | 54 | 237 | 6.0 | 8.0 | 0.00 | 0.00 | 0.00 | 59 | 1005.2 |
| 20260509133047 | 54 | 246 | 0.0 | 4.0 | 0.00 | 0.00 | 0.00 | 57 | 1004.7 |
| 20260509131546 | 54 | 267 | 2.0 | 7.0 | 0.00 | 0.00 | 0.00 | 58 | 1004.9 |
| 20260509130048 | 53 | 277 | 5.0 | 10.0 | 0.00 | 0.00 | 0.00 | 57 | 1004.9 |
| 20260509124547 | 53 | 258 | 6.0 | 14.0 | 0.00 | 0.00 | 0.00 | 57 | 1004.9 |
| 20260509123051 | 52 | 244 | 7.0 | 15.0 | 0.00 | 0.00 | 0.00 | 56 | 1004.5 |
| 20260509121540 | 52 | 248 | 9.0 | 15.0 | 0.00 | 0.00 | 0.00 | 60 | 1004.6 |
| 20260509120138 | 51 | 220 | 9.0 | 14.0 | 0.00 | 0.00 | 0.00 | 58 | 1004.1 |
| 20260509114540 | 49 | 236 | 12.0 | 20.0 | 0.00 | 0.00 | 0.00 | 61 | 1004.1 |
| 20260509113042 | 47 | 239 | 4.0 | 11.0 | 0.00 | 0.00 | 0.00 | 57 | 1003.6 |
| 20260509111544 | 45 | 229 | 0.0 | 8.0 | 0.00 | 0.00 | 0.00 | 58 | 1002.4 |
| 20260509110032 | 45 | 224 | 0.0 | 7.0 | 0.00 | 0.00 | 0.00 | 59 | 1002.0 |
| 20260509104531 | 45 | 182 | 0.0 | 3.0 | 0.00 | 0.00 | 0.00 | 59 | 1002.1 |
| 20260509103029 | 45 | 204 | 0.0 | 0.0 | 0.00 | 0.00 | 0.00 | 57 | 1002.2 |
| 20260509101530 | 46 | 203 | 0.0 | 2.0 | 0.00 | 0.00 | 0.00 | 56 | 1002.3 |
| 20260509100024 | 48 | 199 | 0.0 | 8.0 | 0.00 | 0.00 | 0.00 | 53 | 1002.4 |
| 20260509094527 | 49 | 217 | 2.0 | 11.0 | 0.00 | 0.00 | 0.00 | 50 | 1002.7 |
| 20260509093022 | 48 | 196 | 0.0 | 8.0 | 0.00 | 0.00 | 0.00 | 52 | 1002.7 |
| 20260509091521 | 47 | 185 | 2.0 | 9.0 | 0.00 | 0.00 | 0.00 | 53 | 1002.7 |
| 20260509090019 | 48 | 198 | 0.0 | 4.0 | 0.00 | 0.00 | 0.00 | 52 | 1002.2 |
| 20260509084517 | 48 | 208 | 1.0 | 5.0 | 0.00 | 0.00 | 0.00 | 53 | 1002.5 |
| 20260509083015 | 48 | 224 | 0.0 | 2.0 | 0.00 | 0.00 | 0.00 | 52 | 1002.5 |
| 20260509081510 | 50 | 229 | 0.0 | 0.0 | 0.00 | 0.00 | 0.00 | 50 | 1002.8 |
| 20260509080010 | 50 | 229 | 0.0 | 3.0 | 0.00 | 0.00 | 0.00 | 49 | 1002.9 |
| 20260509074508 | 50 | 232 | 0.0 | 0.0 | 0.00 | 0.00 | 0.00 | 49 | 1002.8 |
| 20260509073008 | 50 | 232 | 0.0 | 2.0 | 0.00 | 0.00 | 0.00 | 51 | 1002.9 |
| 20260509071504 | 53 | 234 | 0.0 | 4.0 | 0.00 | 0.00 | 0.00 | 50 | 1003.0 |
| 20260509064554 | 55 | 239 | 3.0 | 6.0 | 0.00 | 0.00 | 0.00 | 57 | 1003.5 |
| 20260509063059 | 56 | 244 | 3.0 | 5.0 | 0.00 | 0.00 | 0.00 | 55 | 1003.6 |
| 20260509061605 | 56 | 244 | 3.0 | 6.0 | 0.00 | 0.00 | 0.00 | 51 | 1003.5 |
| 20260509060048 | 57 | 247 | 4.0 | 6.0 | 0.00 | 0.00 | 0.00 | 53 | 1003.6 |
| 20260509054555 | 57 | 251 | 3.0 | 5.0 | 0.00 | 0.00 | 0.00 | 50 | 1003.4 |
| 20260509053056 | 58 | 253 | 3.0 | 5.0 | 0.00 | 0.00 | 0.00 | 51 | 1003.5 |
| 20260509051547 | 59 | 261 | 5.0 | 8.0 | 0.00 | 0.00 | 0.00 | 46 | 1003.6 |
| 20260509050038 | 59 | 269 | 5.0 | 8.0 | 0.00 | 0.00 | 0.00 | 46 | 1003.7 |
| 20260509044544 | 59 | 260 | 4.0 | 7.0 | 0.00 | 0.00 | 0.00 | 46 | 1003.7 |
| 20260509043036 | 60 | 262 | 4.0 | 8.0 | 0.00 | 0.00 | 0.00 | 45 | 1003.5 |
| 20260509041536 | 60 | 261 | 5.0 | 8.0 | 0.00 | 0.00 | 0.00 | 45 | 1003.5 |
| 20260509040038 | 61 | 259 | 5.0 | 7.0 | 0.00 | 0.00 | 0.00 | 48 | 1003.5 |
| 20260509034537 | 61 | 274 | 5.0 | 7.0 | 0.00 | 0.00 | 0.00 | 47 | 1003.4 |
| 20260509033035 | 61 | 272 | 5.0 | 7.0 | 0.00 | 0.00 | 0.00 | 48 | 1003.3 |
| 20260509031534 | 62 | 272 | 5.0 | 8.0 | 0.00 | 0.00 | 0.00 | 45 | 1003.2 |
| 20260509030033 | 63 | 265 | 3.0 | 6.0 | 0.00 | 0.00 | 0.00 | 44 | 1003.0 |
| 20260509024535 | 63 | 263 | 3.0 | 6.0 | 0.00 | 0.00 | 0.00 | 43 | 1002.7 |
| 20260509023034 | 63 | 276 | 1.0 | 4.0 | 0.00 | 0.00 | 0.00 | 46 | 1002.5 |
| 20260509021532 | 64 | 277 | 0.0 | 0.0 | 0.00 | 0.00 | 0.00 | 45 | 1002.2 |
| 20260509020036 | 65 | 277 | 2.0 | 5.0 | 0.00 | 0.00 | 0.00 | 43 | 1002.0 |
| 20260509014534 | 66 | 275 | 5.0 | 10.0 | 0.00 | 0.00 | 0.00 | 40 | 1001.9 |
| 20260509013030 | 67 | 273 | 4.0 | 10.0 | 0.00 | 0.00 | 0.00 | 38 | 1001.7 |
| 20260509011530 | 68 | 290 | 7.0 | 19.0 | 0.00 | 0.00 | 0.00 | 36 | 1001.6 |
| 20260509010028 | 69 | 243 | 6.0 | 11.0 | 0.00 | 0.00 | 0.00 | 39 | 1001.4 |
| 20260509004537 | 70 | 230 | 7.0 | 17.0 | 0.00 | 0.00 | 0.00 | 31 | 1001.4 |
| 20260509003027 | 70 | 244 | 11.0 | 16.0 | 0.00 | 0.00 | 0.00 | 34 | 1001.5 |
| 20260509001526 | 71 | 216 | 5.0 | 12.0 | 0.00 | 0.00 | 0.00 | 27 | 1001.3 |
| 20260509000024 | 72 | 234 | 8.0 | 19.0 | 0.00 | 0.00 | 0.00 | 26 | 1001.5 |
| 20260508234524 | 72 | 219 | 13.0 | 18.0 | 0.00 | 0.00 | 0.00 | 28 | 1001.6 |
| 20260508233023 | 73 | 213 | 10.0 | 20.0 | 0.00 | 0.00 | 0.00 | 24 | 1001.6 |
| 20260508231520 | 73 | 237 | 9.0 | 17.0 | 0.00 | 0.00 | 0.00 | 29 | 1001.6 |
| 20260508230018 | 72 | 226 | 4.0 | 17.0 | 0.00 | 0.00 | 0.00 | 26 | 1001.8 |
| 20260508224521 | 72 | 232 | 7.0 | 14.0 | 0.00 | 0.00 | 0.00 | 32 | 1001.9 |
| 20260508223033 | 72 | 223 | 7.0 | 18.0 | 0.00 | 0.00 | 0.00 | 25 | 1002.1 |
| 20260508221514 | 71 | 240 | 8.0 | 19.0 | 0.00 | 0.00 | 0.00 | 33 | 1002.2 |
| 20260508220012 | 71 | 239 | 6.0 | 14.0 | 0.00 | 0.00 | 0.00 | 26 | 1002.4 |
| 20260508214510 | 71 | 252 | 8.0 | 20.0 | 0.00 | 0.00 | 0.00 | 30 | 1002.5 |